Regional Weather Roundup
Issued by NWS

Home | Current Version | Previous Version | Graphics & Text | Print | Product List | Glossary On
Versions: 1 2 3 4 5 6 7 8 9 10 11 12 13 14 15 16 17 18 19 20 21 22 23 24 25 26 27 28 29 30 31 32 33 34 35 36 37 38 39 40 41 42 43 44 45 46 47 48 49 50
000
ASUS43 KBIS 280410
RWRND

NORTH DAKOTA REGIONAL WEATHER ROUNDUP
NATIONAL WEATHER SERVICE BISMARCK ND
1100 PM CDT THU JUL 27 2017

NOTE: "FAIR" INDICATES FEW OR NO CLOUDS BELOW 12,000 FEET WITH NO
SIGNIFICANT WEATHER AND/OR OBSTRUCTIONS TO VISIBILITY.


NDZ001>003-009>011-017-280500-
NORTHWEST NORTH DAKOTA

CITY           SKY/WX    TMP DP  RH WIND       PRES   REMARKS
WILLISTON      PTCLDY    70  61  73 SE5       30.01R
MINOT          CLOUDY    72  58  61 E7        30.03R
MINOT AFB      MOCLDY    69  58  69 SE5       30.02R
$$

NDZ018>021-031>035-040>046-280500-
SOUTHWEST NORTH DAKOTA

CITY           SKY/WX    TMP DP  RH WIND       PRES   REMARKS
BISMARCK       CLOUDY    73  60  63 SE12      30.03S
DICKINSON      CLOUDY    65  61  87 NE3       30.04R
GARRISON         N/A     68  62  81 E7        30.03R
HETTINGER ARPT CLEAR     62  54  74 CALM      30.06R
$$

NDZ004>008-012>016-024-026-027-054-280500-
NORTHEAST NORTH DAKOTA

CITY           SKY/WX    TMP DP  RH WIND       PRES   REMARKS
GRAND FORKS    PTCLDY    66  62  87 W3        30.05R
GRND FRKS AFB  PTCLDY    64  60  88 CALM      30.06S
DEVILS LAKE    PTCLDY    70  60  70 SE7       30.07S
$$

NDZ022-023-025-028>030-036>039-047>053-280500-
SOUTHEAST NORTH DAKOTA

CITY           SKY/WX    TMP DP  RH WIND       PRES   REMARKS
FARGO          CLEAR     66  61  84 CALM      30.06R
JAMESTOWN      PTCLDY    68  59  73 SE8       30.06S
$$




USA.gov is the U.S. government's official web portal to all federal, state and local government web resources and services.